Location: East-View Observatory
(46.8144°N, 92.0597°W)
Time: 12:24:34
(UTC-06:00)

OTV 5 (USA 277) - Pass Details

Date: 30 October 2019
Orbit: 310 x 324 km, 54.5° (Epoch: 17 October)

Event Time Altitude Azimuth Distance (km) Brightness Sun altitude
Rises 20:07:53 0° 251° (WSW) 2,058 ? -23.1°
Reaches altitude 10° 20:09:53 10° 258° (WSW) 1,231 ? -23.4°
Enters shadow 20:11:08 22° 270° (W) 758 ? -23.6°
